Temperature
21 21 21 21 18 18 19 20 21 21 21 21 21 20 19 19 19 18 18 18 18 18 18 18 18 18 18 18 18 18 18 18 18 17 18 18 17 17 17 18 18 18 18 18 18 18 18 18 18
21 21 21 21 18 18 20 20 21 22 22 22 21 21 19 19 19 18 18 18 18 18 18 18 18 18 18 18 18 18 18 17 17 17 17 17 17 17 17 17 18 18 17 17 17 17 17 17 17
22 21 21 18 19 19 20 21 21 22 22 22 21 20 20 19 19 19 19 18 18 18 18 18 18 18 18 18 18 18 18 17 17 17 17 17 17 17 17 17 17 17 17 17 17 17 17 17 17
22 22 21 18 20 20 20 21 21 22 22 22 21 20 20 19 19 19 19 18 18 18 18 18 18 18 18 18 17 17 17 17 17 17 17 17 17 17 17 17 17 17 17 17 17 17 17 17 17
22 21 19 19 20 21 21 22 22 21 21 21 21 19 19 20 19 19 19 19 19 18 18 18 18 18 18 17 17 17 17 17 17 17 17 17 17 17 17 17 17 17 17 17 17 17 17 17 17
22 19 18 19 20 21 21 22 22 21 21 21 20 19 19 19 19 19 19 19 19 19 18 18 18 18 18 17 17 17 17 17 17 17 17 17 17 17 17 17 17 17 17 17 17 17 17 17 17
21 18 19 19 20 21 22 23 22 21 21 21 21 19 19 19 19 19 19 19 19 18 18 18 18 18 18 17 17 17 17 17 17 17 17 17 17 17 16 17 17 17 17 17 17 17 16 16 16
22 18 19 19 20 21 23 23 23 23 22 22 22 19 19 20 19 19 19 19 19 18 18 18 18 18 18 17 17 17 17 17 17 17 17 17 17 16 16 16 16 16 16 16 16 16 16 16 16
23 18 18 20 20 21 23 23 23 23 23 22 22 22 21 20 19 19 19 18 18 18 18 18 18 18 18 17 17 17 17 17 17 17 17 17 16 16 16 16 16 16 16 16 16 16 16 16 16
21 18 20 21 21 21 22 23 23 22 22 21 21 21 21 20 20 19 19 19 18 18 18 18 18 18 18 17 17 17 17 17 17 17 17 17 16 16 16 16 16 16 16 16 16 16 16 16 16
21 19 21 22 23 23 22 23 23 22 20 21 21 21 20 20 20 20 19 19 19 19 18 18 18 18 18 17 17 17 17 17 17 17 17 16 16 16 16 16 16 16 16 16 16 16 16 16 16
21 21 22 23 23 23 23 23 22 22 22 22 22 22 21 20 20 20 20 19 19 19 19 18 18 18 18 18 17 17 17 17 17 16 16 16 16 16 16 16 16 16 16 16 16 16 16 16 16
21 21 23 23 23 23 23 22 22 22 23 22 22 21 21 20 20 20 20 20 19 19 19 18 18 18 18 17 17 17 17 17 17 17 16 16 16 16 16 16 16 16 16 16 16 16 16 16 15
22 22 22 23 23 23 22 22 22 22 23 22 21 21 21 21 21 20 20 20 19 19 19 18 18 18 18 17 17 17 17 17 17 17 16 16 16 16 16 16 16 16 16 15 15 15 15 15 15
23 21 21 22 23 23 22 21 21 22 22 21 21 21 21 21 21 20 20 20 20 19 19 19 18 18 18 17 17 17 17 17 17 17 16 16 16 16 16 16 16 16 16 15 15 15 15 15 15
21 20 20 21 22 22 22 20 21 22 22 21 21 21 21 21 21 21 21 20 20 20 19 19 18 18 18 17 17 17 17 17 17 16 16 16 16 16 16 16 16 16 16 15 15 15 15 15 15
19 19 19 21 22 22 21 20 20 22 21 21 21 21 21 21 21 21 21 20 20 20 19 19 18 18 18 18 17 17 17 17 16 16 16 16 16 16 16 16 16 16 15 15 15 15 15 15 15
19 19 20 20 21 21 20 19 20 22 21 21 21 21 21 21 21 21 21 20 20 20 19 19 19 18 18 18 17 17 17 17 16 16 16 16 16 16 16 16 15 15 15 15 15 15 15 15 15
20 20 20 20 21 21 20 19 20 21 21 20 20 20 21 21 21 21 21 20 20 20 19 19 19 18 18 18 17 17 17 17 16 16 16 16 16 16 15 15 15 15 15 15 15 15 15 15 15
20 20 20 20 21 21 20 19 19 20 20 20 20 20 21 21 21 21 20 20 20 20 19 19 19 18 18 18 18 17 17 16 16 16 16 16 16 15 15 15 15 15 15 15 15 15 15 14 14
20 20 20 20 21 21 20 19 19 19 20 20 21 21 21 21 21 20 20 20 20 20 19 19 19 18 18 18 17 17 16 16 16 16 16 16 15 15 15 15 15 15 15 15 15 15 15 14 14
20 21 21 21 19 18 20 17 18 18 19 19 20 20 20 21 21 20 20 20 20 20 19 19 19 18 18 18 17 17 17 16 16 16 16 15 15 15 15 15 15 15 15 14 14 14 14 14 14
20 21 21 21 19 18 18 18 17 18 18 18 18 20 20 20 20 20 20 20 20 20 19 19 19 18 18 18 17 17 17 16 16 16 16 15 15 15 15 15 15 15 14 14 14 14 14 14 14
21 20 19 17 17 17 18 17 17 17 18 18 18 19 20 20 20 20 20 20 20 20 19 19 18 18 18 17 17 17 17 16 16 16 16 15 15 15 15 15 15 14 14 14 14 14 14 14 14
20 17 17 17 16 17 17 17 17 18 18 18 18 19 19 19 20 19 19 20 19 19 19 19 18 18 18 17 17 17 17 16 16 16 16 15 15 15 15 15 14 14 14 14 14 14 14 13 13
19 18 17 17 16 16 17 17 17 18 19 19 19 19 19 19 19 19 19 19 19 19 19 18 18 18 17 17 17 17 16 16 16 16 16 15 15 15 15 14 14 14 14 14 14 14 13 13 13
19 18 17 16 17 17 16 17 18 18 18 18 18 18 18 18 18 19 19 19 19 18 18 18 18 17 17 17 17 16 16 16 16 15 15 15 15 15 15 14 14 14 14 14 13 13 13 13 13
20 18 16 16 16 16 17 17 16 17 17 17 17 17 17 18 18 18 18 18 18 18 18 17 17 17 17 17 16 16 16 16 15 15 15 15 15 15 14 14 14 14 14 13 13 13 13 13 13
19 18 16 15 15 15 16 16 17 17 17 17 16 17 18 18 18 18 18 18 18 17 17 17 17 17 16 16 16 16 16 16 15 15 15 15 14 14 14 14 14 14 14 13 13 13 13 13 13
19 18 16 16 15 15 14 15 17 17 17 17 17 17 18 18 18 17 17 17 17 17 16 16 16 16 16 16 15 15 15 15 15 15 15 14 14 14 14 14 14 13 13 13 13 13 12 12 12
Wind_Speed
3 2 2 3 5 6 3 1 2 4 4 5 8 9 8 6 4 5 3 7 9 6 7 9 11 11 12 12 12 12 13 14 14 14 14 14 14 13 13 11 11 11 11 11 11 10 10 10 10
1 1 3 5 5 4 2 1 5 5 6 7 8 8 7 6 4 7 5 8 10 8 8 9 11 11 12 13 13 13 14 14 14 14 14 14 13 13 13 12 12 12 12 11 11 11 10 11 11
2 1 4 4 4 4 3 2 5 5 5 5 5 5 5 5 5 6 7 11 10 8 9 10 11 12 12 13 13 13 13 13 14 14 13 13 13 13 13 13 13 13 12 12 12 12 11 11 11
2 4 5 5 4 2 5 4 5 6 5 5 6 6 4 4 5 7 12 12 10 8 9 11 12 13 12 13 13 13 13 13 13 13 13 13 13 13 13 13 14 14 13 13 12 12 12 12 12
3 4 5 4 3 1 3 4 5 7 4 5 8 6 3 2 8 12 13 12 11 8 9 11 13 13 12 12 12 12 12 12 12 12 12 12 12 13 13 14 14 14 13 13 12 12 11 12 12
4 5 5 2 2 1 1 4 6 8 8 8 8 6 3 3 9 11 12 11 10 9 8 10 12 13 12 12 12 11 11 11 11 11 11 11 11 12 12 13 13 13 13 13 13 12 12 12 12
4 4 4 3 2 2 2 4 7 7 7 6 7 6 3 4 7 11 11 10 9 9 8 7 9 10 11 11 10 10 10 10 9 10 10 10 10 10 11 12 12 12 12 12 13 13 13 13 12
4 5 3 2 3 1 2 3 5 8 6 6 6 8 6 7 8 10 10 9 9 8 8 7 7 8 8 8 9 9 9 8 8 9 9 9 9 9 10 10 11 11 11 11 11 11 12 13 13
4 5 3 3 4 2 2 5 3 4 7 4 4 6 8 11 11 10 8 6 7 7 6 6 6 7 7 7 7 8 8 7 7 7 8 8 7 6 6 8 9 9 9 9 10 10 11 11 12
5 4 4 4 5 4 2 4 3 4 6 4 4 5 9 10 11 11 10 9 8 8 7 6 6 6 7 6 6 5 5 5 5 5 6 6 5 5 5 6 8 8 8 8 9 9 10 9 9
4 5 3 2 4 3 2 1 2 6 4 5 7 9 11 9 9 10 10 10 9 9 9 8 7 6 6 4 5 3 3 3 4 4 5 5 5 4 4 4 4 5 6 6 7 8 7 7 7
3 3 4 3 3 3 3 3 2 5 7 7 10 13 12 10 10 9 9 9 8 9 9 8 7 6 5 5 4 3 3 3 3 3 5 6 4 3 3 2 3 3 4 4 5 5 6 7 7
2 2 2 3 2 3 3 4 4 4 5 7 9 10 11 10 9 8 8 9 8 8 8 8 8 7 5 4 3 4 3 3 4 4 5 6 4 3 3 2 3 3 4 3 3 4 5 5 6
3 2 1 2 3 2 4 3 4 5 6 7 9 10 11 10 9 7 8 8 8 8 8 8 8 7 6 5 4 3 4 5 5 4 6 7 6 4 3 3 2 2 3 4 4 4 4 4 5
2 0 3 2 3 3 4 1 5 7 8 8 9 9 10 10 9 10 11 11 9 9 8 8 8 8 7 6 5 4 4 5 4 4 5 6 7 6 4 3 2 2 4 5 5 5 5 4 5
2 2 2 4 2 3 5 5 7 7 9 8 8 9 9 9 10 10 11 10 10 9 8 8 9 8 7 5 4 4 4 5 4 5 6 6 7 7 5 3 2 3 5 4 4 3 4 4 4
2 1 3 4 3 2 4 6 8 7 9 9 9 9 9 8 8 9 10 11 11 11 10 8 8 8 7 6 4 4 4 4 4 5 5 5 6 7 6 4 3 5 4 3 4 3 3 3 3
4 4 3 4 4 2 4 7 8 7 9 10 9 9 9 10 10 10 10 11 11 10 10 9 8 8 7 5 4 3 3 3 3 3 4 5 5 6 6 4 4 5 4 3 3 3 3 2 2
4 3 4 7 5 3 6 8 9 8 7 8 8 9 9 10 9 9 9 10 10 9 10 10 9 8 7 5 5 4 3 2 2 2 4 5 5 6 5 4 3 3 3 3 3 3 3 2 2
3 3 5 6 4 4 5 7 8 6 8 9 11 10 10 8 6 7 8 9 10 10 10 10 10 9 8 6 6 4 4 2 2 2 2 4 5 5 5 4 4 3 3 3 3 3 2 1 2
4 6 6 5 4 2 1 5 5 4 4 6 8 8 9 10 11 10 10 9 9 10 11 11 10 9 9 7 5 4 3 2 2 1 1 2 4 5 4 4 4 4 4 4 3 3 4 2 0
5 6 5 4 1 4 2 4 7 5 3 4 6 6 8 8 9 10 10 9 10 11 10 10 10 9 8 9 8 8 6 4 4 3 3 3 3 4 5 4 4 4 3 3 3 3 3 3 1
6 5 4 3 3 3 2 3 6 2 3 4 4 5 6 6 8 10 10 10 10 10 10 10 9 8 8 9 10 9 6 4 3 3 3 3 2 3 4 5 4 4 3 4 4 3 3 3 3
3 1 3 4 3 3 6 4 5 4 5 4 2 3 4 5 6 7 8 7 7 7 8 8 9 8 7 8 9 9 8 6 5 4 4 3 2 2 2 4 4 4 3 4 4 3 4 3 3
3 4 3 4 2 5 3 2 4 5 4 5 4 3 2 3 4 5 5 5 6 6 7 8 9 7 7 8 8 9 9 9 9 7 6 5 3 2 4 3 3 3 3 3 3 3 3 3 3
2 7 6 4 4 5 2 2 3 3 2 3 4 3 3 3 3 4 5 5 5 6 7 8 8 8 8 8 7 8 8 7 6 7 6 6 5 5 4 5 4 4 3 3 3 2 3 3 3
3 3 6 5 3 2 3 2 3 3 3 3 4 4 4 3 3 4 3 4 4 4 5 6 7 6 7 7 7 6 7 7 7 7 6 5 5 5 5 5 5 4 4 3 3 2 3 2 3
4 5 4 3 2 3 3 3 4 2 1 1 2 3 3 3 3 3 3 3 3 4 4 5 5 6 6 6 6 6 7 7 6 6 6 6 6 5 5 5 5 4 4 4 3 3 2 3 2
0 1 3 3 4 4 4 5 5 7 5 3 2 3 4 4 3 3 3 3 3 3 3 3 4 4 3 4 4 5 5 5 5 6 6 6 5 5 6 6 5 5 5 4 4 4 3 3 2
4 4 5 3 3 3 3 6 5 4 4 3 3 3 4 4 4 3 3 3 3 3 2 2 3 4 4 4 3 4 4 4 4 5 6 6 6 6 6 5 6 6 5 5 5 4 4 4 4
Wind_Direction
310 333 77 60 54 55 63 29 112 85 62 63 76 83 87 74 97 128 165 140 131 126 117 103 95 94 92 91 91 91 90 89 88 85 83 81 81 81 78 73 80 89 90 87 84 81 83 84 84
358 31 62 57 78 76 40 131 97 100 129 117 83 83 81 73 88 117 131 143 136 131 123 111 103 99 96 94 94 93 92 91 89 88 85 82 81 81 78 74 82 90 91 87 83 80 81 83 81
317 70 79 67 88 129 143 162 124 105 101 97 80 65 86 114 120 140 153 146 135 128 125 119 112 106 101 99 98 96 95 93 91 90 87 83 81 81 79 77 81 85 85 84 82 79 80 81 81
55 44 58 75 92 158 159 171 137 106 74 77 99 73 70 120 143 144 145 141 132 128 128 125 117 112 107 104 101 99 98 96 94 92 88 85 84 85 83 81 81 81 81 81 81 79 77 78 78
67 73 62 69 91 145 154 155 135 115 108 98 99 97 77 78 125 134 144 142 137 135 133 129 122 118 113 109 105 102 101 99 98 97 94 90 89 88 85 83 81 79 78 77 78 77 77 78 78
54 67 82 95 97 112 142 135 122 113 115 114 107 109 121 152 136 145 148 146 143 141 138 133 128 124 120 116 114 109 105 104 102 100 100 97 94 91 89 87 83 80 78 77 74 74 75 78 77
106 98 124 141 112 105 148 132 126 132 131 138 126 110 138 174 160 150 147 145 143 141 138 135 135 131 126 125 122 118 112 108 107 105 103 103 102 99 95 92 88 84 81 78 75 73 74 73 72
132 106 92 99 119 145 138 100 123 125 124 134 123 135 169 191 161 144 139 139 140 143 145 146 146 142 137 136 131 125 119 113 108 106 104 104 108 105 98 93 90 87 83 80 77 77 76 73 69
95 85 127 174 157 184 100 91 87 105 109 109 125 159 171 160 144 136 130 133 141 148 155 154 156 156 152 149 141 132 125 119 115 109 109 102 103 105 102 99 97 92 87 82 75 72 71 70 68
93 130 191 193 170 163 133 116 130 90 93 88 85 107 137 143 144 146 147 154 157 161 166 163 161 165 164 157 144 141 131 124 122 121 120 115 111 107 107 104 97 91 85 78 71 69 66 65 64
131 162 190 191 176 165 158 147 124 121 130 161 158 150 148 149 152 156 160 163 166 164 164 169 166 164 159 144 144 144 135 129 123 124 132 135 121 109 102 91 83 76 72 66 60 61 59 65 73
131 187 180 191 189 169 172 151 128 151 184 176 165 157 156 158 164 166 163 165 160 155 163 169 164 159 158 150 148 149 139 134 132 134 126 124 117 111 111 99 85 76 76 71 61 62 60 65 78
137 194 197 201 204 181 158 159 155 184 180 151 146 147 161 168 174 175 165 157 154 155 163 166 164 160 158 147 152 142 139 140 143 133 127 126 123 124 111 97 97 90 88 88 79 73 72 72 75
183 182 220 198 204 181 159 182 153 198 167 152 154 164 173 177 177 164 160 161 164 162 164 164 158 155 147 147 149 142 144 136 133 129 132 134 133 132 119 105 95 94 102 105 95 85 83 78 79
150 41 327 261 203 187 137 219 206 196 168 166 172 178 183 185 176 174 174 169 170 165 159 158 154 149 148 150 149 138 136 128 128 133 133 131 131 132 127 120 114 113 112 102 90 77 76 76 74
46 58 281 278 210 197 146 230 244 195 170 180 184 187 192 196 186 183 176 167 167 160 156 159 155 149 148 148 143 131 131 124 128 133 130 131 136 134 125 120 120 112 106 100 97 81 76 67 70
26 211 239 283 247 199 170 226 243 207 181 191 192 192 195 198 199 190 176 170 169 164 159 157 150 152 151 147 142 131 122 120 131 132 131 132 133 134 127 120 118 113 101 101 107 88 95 88 77
223 221 235 246 254 204 215 239 245 218 192 196 196 195 197 198 204 196 181 172 169 165 160 159 155 154 150 139 125 112 106 111 113 124 132 134 135 133 126 121 118 114 108 98 99 100 86 99 104
200 211 242 252 243 217 236 246 248 224 202 200 198 196 198 205 206 190 178 169 163 164 163 164 160 161 153 149 146 139 149 145 125 131 140 141 142 140 132 122 124 121 125 133 126 115 96 79 89
209 236 257 275 256 218 244 260 256 227 204 198 193 196 201 205 196 188 180 172 168 169 172 172 170 168 167 168 166 161 159 159 157 138 132 141 141 143 144 140 146 138 122 116 119 121 117 100 92
246 221 231 248 304 321 281 305 289 278 213 203 201 195 197 193 191 191 185 180 170 174 179 177 177 173 171 164 143 126 100 86 94 122 161 158 152 146 141 146 145 147 144 150 156 146 139 157 241
248 239 229 238 287 276 190 260 280 260 248 224 217 204 204 202 192 187 183 182 179 184 182 178 176 174 172 162 157 156 158 169 192 188 188 188 164 153 153 150 153 159 157 161 175 161 155 149 182
231 246 240 241 219 277 272 194 277 278 236 243 229 202 197 196 188 186 186 185 183 179 176 177 174 175 174 169 168 166 168 180 177 168 176 191 194 172 162 156 155 167 174 177 177 162 162 166 174
223 2 11 46 82 267 247 190 267 248 214 216 214 183 179 181 179 182 185 180 180 176 172 170 170 177 176 173 173 174 173 172 165 174 185 195 200 201 180 160 157 167 177 185 185 178 176 183 180
75 81 22 351 355 257 259 178 252 255 201 174 174 182 162 148 154 155 157 170 177 172 170 166 164 171 176 175 180 183 182 178 179 183 189 186 188 200 205 179 173 174 181 186 180 179 188 189 185
192 147 163 208 237 278 317 216 262 251 160 138 134 128 115 109 118 135 155 161 168 171 168 166 169 172 178 181 190 190 185 186 190 191 189 191 196 200 195 185 184 183 176 178 174 180 193 185 191
164 185 180 165 225 257 276 283 327 15 57 78 93 96 113 126 131 130 131 137 145 155 163 165 171 175 180 185 188 192 191 190 192 192 190 194 196 196 188 185 186 187 180 178 170 187 199 181 189
160 158 94 125 185 256 281 260 229 241 232 121 105 125 140 140 139 132 131 131 135 141 143 152 160 170 179 185 188 190 194 193 189 187 194 198 198 193 184 188 187 186 186 183 177 193 202 184 202
66 105 108 138 168 176 239 266 234 203 200 176 166 167 157 151 151 144 139 139 120 102 112 136 150 149 162 180 184 184 189 187 184 188 198 201 196 190 189 191 189 191 194 191 186 197 188 188 205
181 176 147 165 243 187 190 263 284 199 190 160 162 181 165 156 160 154 135 110 104 109 114 131 155 161 174 175 173 176 179 181 189 200 201 198 195 195 194 194 194 198 199 192 187 200 198 193 201
Height
1502 1502 1501 1502 1505 1516 1519 1514 1509 1507 1507 1508 1508 1509 1512 1515 1519 1526 1523 1522 1522 1521 1520 1519 1519 1518 1518 1518 1517 1517 1517 1516 1516 1515 1515 1514 1513 1512 1510 1508 1504 1505 1508 1511 1512 1512 1512 1512 1512
1503 1502 1503 1503 1513 1526 1523 1513 1510 1507 1508 1509 1509 1511 1513 1517 1518 1520 1521 1522 1523 1522 1522 1521 1520 1520 1519 1519 1519 1519 1518 1518 1518 1517 1516 1516 1515 1513 1511 1508 1504 1505 1509 1511 1512 1513 1513 1513 1513
1503 1503 1504 1507 1516 1523 1520 1512 1508 1507 1508 1508 1511 1514 1516 1518 1519 1520 1521 1523 1523 1523 1523 1522 1522 1521 1521 1521 1520 1520 1520 1520 1519 1519 1518 1517 1516 1515 1514 1511 1509 1509 1511 1513 1514 1514 1514 1514 1514
1504 1505 1506 1513 1517 1514 1511 1509 1507 1508 1509 1510 1512 1516 1518 1520 1520 1521 1522 1523 1524 1524 1523 1523 1523 1523 1522 1522 1522 1522 1521 1521 1521 1520 1520 1519 1518 1517 1516 1515 1514 1514 1514 1515 1515 1515 1516 1515 1515
1504 1505 1511 1519 1516 1511 1508 1507 1507 1508 1510 1512 1512 1517 1520 1521 1521 1522 1523 1524 1524 1524 1524 1524 1524 1524 1524 1524 1523 1523 1523 1523 1522 1522 1522 1521 1520 1520 1519 1518 1517 1517 1517 1517 1517 1517 1517 1517 1517
1505 1506 1520 1525 1517 1511 1508 1507 1508 1509 1511 1513 1514 1518 1521 1522 1522 1523 1524 1525 1525 1525 1525 1525 1526 1526 1525 1525 1525 1525 1525 1524 1524 1524 1523 1523 1522 1522 1521 1521 1520 1520 1519 1519 1519 1519 1519 1519 1518
1506 1511 1519 1520 1518 1513 1508 1507 1508 1510 1512 1513 1514 1518 1521 1522 1523 1523 1524 1525 1526 1526 1527 1527 1527 1527 1527 1527 1527 1526 1526 1526 1526 1525 1525 1524 1524 1524 1523 1523 1522 1522 1522 1521 1521 1521 1521 1520 1520
1505 1510 1517 1519 1518 1514 1508 1507 1508 1509 1512 1514 1515 1517 1520 1522 1523 1524 1525 1526 1527 1527 1527 1527 1528 1528 1528 1528 1528 1528 1528 1528 1527 1527 1527 1526 1526 1525 1525 1525 1525 1524 1524 1524 1523 1523 1523 1522 1522
1505 1515 1521 1518 1516 1513 1508 1508 1510 1510 1511 1513 1514 1515 1517 1520 1522 1524 1525 1526 1527 1528 1528 1528 1528 1529 1529 1529 1529 1529 1529 1529 1529 1528 1528 1528 1527 1527 1527 1527 1526 1526 1526 1526 1525 1525 1525 1524 1524
1505 1517 1515 1510 1509 1509 1508 1509 1510 1511 1512 1514 1515 1516 1517 1519 1521 1523 1524 1525 1526 1527 1528 1528 1529 1529 1530 1530 1530 1530 1530 1530 1530 1530 1529 1529 1529 1528 1528 1528 1528 1528 1528 1528 1527 1527 1526 1526 1525
1505 1510 1508 1507 1507 1508 1508 1509 1510 1511 1514 1514 1514 1516 1517 1519 1521 1522 1523 1524 1525 1527 1528 1529 1529 1530 1530 1531 1531 1531 1531 1531 1531 1531 1530 1530 1530 1530 1530 1529 1529 1529 1529 1529 1529 1529 1528 1528 1527
1505 1505 1505 1506 1506 1507 1508 1508 1510 1510 1512 1512 1513 1515 1516 1518 1519 1521 1522 1524 1525 1526 1527 1528 1529 1530 1531 1531 1531 1532 1532 1532 1532 1532 1532 1531 1531 1531 1531 1531 1531 1531 1531 1531 1530 1530 1530 1529 1529
1505 1505 1505 1505 1505 1506 1507 1507 1509 1510 1511 1512 1513 1515 1516 1517 1519 1520 1522 1523 1524 1526 1527 1528 1529 1530 1531 1531 1532 1532 1532 1532 1532 1532 1532 1532 1532 1532 1532 1532 1532 1532 1532 1532 1531 1531 1531 1531 1530
1504 1504 1505 1505 1505 1505 1506 1507 1508 1509 1510 1511 1512 1514 1515 1516 1518 1519 1521 1522 1523 1525 1526 1527 1528 1529 1530 1531 1532 1532 1533 1533 1533 1533 1533 1533 1533 1533 1533 1533 1533 1533 1533 1533 1533 1532 1532 1532 1531
1504 1506 1506 1505 1504 1505 1506 1510 1507 1507 1508 1510 1511 1513 1514 1515 1516 1517 1519 1520 1522 1523 1525 1526 1528 1529 1530 1531 1532 1532 1533 1533 1533 1533 1533 1534 1534 1533 1533 1533 1533 1533 1534 1533 1533 1533 1533 1533 1532
1505 1510 1515 1506 1503 1504 1509 1515 1505 1505 1506 1508 1510 1511 1512 1513 1514 1516 1517 1519 1521 1522 1524 1526 1527 1528 1529 1530 1531 1532 1533 1533 1533 1533 1533 1534 1534 1534 1534 1534 1534 1534 1534 1534 1534 1534 1533 1533 1533
1513 1519 1517 1509 1502 1503 1507 1511 1503 1503 1504 1506 1507 1508 1510 1511 1513 1514 1515 1517 1519 1520 1522 1524 1526 1527 1528 1530 1531 1532 1532 1532 1533 1533 1533 1533 1534 1534 1534 1534 1534 1534 1534 1534 1534 1534 1534 1534 1534
1519 1518 1515 1512 1503 1503 1507 1506 1501 1500 1501 1502 1503 1505 1507 1509 1510 1512 1513 1515 1517 1519 1521 1523 1524 1526 1527 1529 1530 1531 1531 1532 1532 1533 1533 1533 1533 1534 1534 1534 1534 1534 1534 1534 1534 1534 1534 1534 1534
1508 1511 1513 1508 1500 1503 1505 1504 1499 1497 1499 1499 1500 1502 1503 1505 1508 1509 1511 1513 1515 1517 1519 1520 1522 1524 1525 1527 1528 1529 1530 1531 1531 1532 1532 1533 1533 1533 1533 1534 1534 1534 1534 1534 1534 1534 1534 1534 1534
1506 1511 1511 1505 1498 1501 1504 1503 1496 1495 1495 1496 1497 1498 1500 1502 1505 1507 1509 1511 1512 1514 1517 1518 1520 1521 1523 1525 1526 1528 1529 1530 1531 1531 1532 1532 1532 1533 1533 1533 1533 1533 1533 1533 1533 1533 1533 1533 1534
1505 1508 1508 1506 1501 1499 1504 1506 1500 1494 1493 1494 1494 1495 1496 1498 1500 1503 1505 1508 1509 1512 1514 1516 1517 1519 1521 1523 1525 1526 1528 1529 1529 1530 1530 1531 1531 1532 1532 1532 1532 1533 1533 1533 1533 1533 1533 1533 1533
1508 1499 1500 1501 1509 1513 1508 1521 1505 1497 1494 1492 1492 1493 1494 1495 1497 1499 1502 1504 1506 1509 1511 1513 1515 1517 1519 1520 1522 1523 1524 1525 1526 1527 1528 1529 1530 1530 1531 1531 1531 1531 1531 1531 1532 1532 1532 1532 1532
1499 1494 1497 1499 1506 1512 1509 1518 1510 1498 1497 1493 1491 1490 1491 1492 1494 1496 1499 1501 1503 1506 1508 1510 1512 1514 1516 1518 1520 1521 1522 1523 1525 1526 1527 1527 1528 1529 1529 1529 1529 1530 1530 1530 1530 1530 1530 1531 1531
1492 1496 1499 1505 1512 1522 1511 1516 1514 1502 1496 1492 1490 1489 1489 1490 1492 1494 1497 1500 1502 1504 1506 1508 1510 1512 1514 1516 1517 1518 1520 1521 1522 1523 1524 1525 1526 1526 1527 1527 1528 1528 1528 1528 1528 1528 1529 1529 1529
1495 1510 1524 1525 1530 1524 1509 1511 1510 1495 1490 1489 1489 1489 1489 1489 1491 1493 1495 1498 1499 1501 1503 1505 1507 1509 1511 1513 1514 1516 1517 1519 1519 1520 1521 1522 1523 1524 1524 1525 1525 1526 1526 1526 1526 1526 1526 1526 1527
1497 1506 1525 1532 1531 1523 1510 1512 1504 1491 1488 1487 1488 1488 1489 1490 1491 1492 1494 1495 1497 1499 1500 1502 1504 1506 1508 1510 1511 1513 1515 1516 1517 1518 1519 1520 1520 1521 1522 1523 1523 1524 1524 1524 1524 1524 1524 1524 1524
1497 1503 1503 1516 1518 1522 1517 1507 1498 1490 1489 1489 1489 1489 1490 1490 1491 1492 1493 1494 1496 1497 1499 1500 1502 1503 1505 1507 1509 1510 1512 1513 1514 1515 1517 1518 1518 1519 1520 1520 1521 1521 1522 1522 1522 1522 1522 1522 1522
1490 1496 1508 1515 1524 1527 1518 1512 1509 1497 1493 1490 1490 1490 1490 1491 1491 1492 1493 1494 1495 1496 1497 1499 1500 1501 1503 1505 1506 1507 1508 1510 1511 1513 1514 1515 1516 1516 1517 1518 1518 1519 1519 1519 1519 1519 1519 1519 1519
1495 1498 1504 1513 1516 1524 1526 1517 1494 1493 1490 1490 1490 1489 1489 1490 1491 1491 1492 1493 1494 1495 1496 1497 1498 1499 1500 1502 1503 1504 1506 1507 1508 1509 1510 1511 1512 1513 1514 1515 1515 1516 1516 1516 1516 1516 1517 1516 1516
1490 1494 1502 1514 1517 1517 1521 1516 1488 1488 1488 1488 1489 1489 1489 1490 1490 1491 1491 1492 1492 1493 1494 1495 1496 1497 1498 1499 1500 1501 1503 1504 1505 1506 1507 1508 1509 1510 1511 1512 1512 1513 1513 1513 1513 1513 1513 1513 1513